| time (UTC) | temp F | wind direction | speed knots | gust knots | rain 1hr in | rain 24hr in | rain mn in | humidity % | barometer mb |
| 20260509090618 | 69 | 315 | 2.6 | 4.3 | 0.00 | 0.00 | 0.00 | 4 | 1013.0 |
| 20260509085619 | 69 | 315 | 5.2 | 7.8 | 0.00 | 0.00 | 0.00 | 4 | 1013.0 |
| 20260509084619 | 70 | 315 | 4.3 | 7.0 | 0.00 | 0.00 | 0.00 | 3 | 1013.0 |
| 20260509083618 | 70 | 312 | 4.3 | 5.2 | 0.00 | 0.00 | 0.00 | 3 | 1013.0 |
| 20260509082618 | 71 | 315 | 5.2 | 2.6 | 0.00 | 0.00 | 0.00 | 3 | 1013.0 |
| 20260509081620 | 71 | 324 | 5.2 | 4.3 | 0.00 | 0.00 | 0.00 | 3 | 1013.0 |
| 20260509080619 | 72 | 336 | 4.3 | 10.4 | 0.00 | 0.00 | 0.00 | 3 | 1013.0 |
| 20260509075619 | 72 | 323 | 2.6 | 4.3 | 0.00 | 0.00 | 0.00 | 3 | 1013.0 |
| 20260509074618 | 73 | 335 | 4.3 | 7.0 | 0.00 | 0.00 | 0.00 | 3 | 1012.0 |
| 20260509073620 | 73 | 317 | 4.3 | 4.3 | 0.00 | 0.00 | 0.00 | 2 | 1012.0 |
| 20260509072620 | 74 | 319 | 4.3 | 7.0 | 0.00 | 0.00 | 0.00 | 2 | 1012.0 |
| 20260509071618 | 74 | 315 | 2.6 | 4.3 | 0.00 | 0.00 | 0.00 | 2 | 1012.0 |
| 20260509070620 | 75 | 315 | 5.2 | 13.0 | 0.00 | 0.00 | 0.00 | 2 | 1012.0 |
| 20260509065619 | 75 | 301 | 2.6 | 5.2 | 0.00 | 0.00 | 0.00 | 2 | 1012.0 |
| 20260509064618 | 75 | 315 | 2.6 | 7.0 | 0.00 | 0.00 | 0.00 | 2 | 1012.0 |
| 20260509063619 | 76 | 304 | 6.1 | 6.1 | 0.00 | 0.00 | 0.00 | 2 | 1012.0 |
| 20260509062619 | 77 | 315 | 4.3 | 6.1 | 0.00 | 0.00 | 0.00 | 2 | 1012.0 |
| 20260509061619 | 77 | 315 | 2.6 | 6.1 | 0.00 | 0.00 | 0.00 | 2 | 1012.0 |
| 20260509060619 | 79 | 315 | 5.2 | 8.7 | 0.00 | 0.00 | 0.00 | 2 | 1013.0 |
| 20260509055620 | 81 | 315 | 5.2 | 5.2 | 0.00 | 0.00 | 0.00 | 2 | 1013.0 |
| 20260509054618 | 82 | 319 | 4.3 | 7.0 | 0.00 | 0.00 | 0.00 | 2 | 1013.0 |
| 20260509053618 | 82 | 315 | 2.6 | 6.1 | 0.00 | 0.00 | 0.00 | 2 | 1013.0 |
| 20260509052618 | 82 | 315 | 6.1 | 6.1 | 0.00 | 0.00 | 0.00 | 2 | 1013.0 |
| 20260509051618 | 82 | 315 | 6.1 | 6.1 | 0.00 | 0.00 | 0.00 | 2 | 1013.0 |
| 20260509050618 | 83 | 330 | 4.3 | 5.2 | 0.00 | 0.00 | 0.00 | 2 | 1012.0 |
| 20260509045618 | 83 | 315 | 1.7 | 5.2 | 0.00 | 0.00 | 0.00 | 2 | 1012.0 |
| 20260509044618 | 83 | 315 | 1.7 | 5.2 | 0.00 | 0.00 | 0.00 | 2 | 1013.0 |
| 20260509043619 | 83 | 315 | 1.7 | 4.3 | 0.00 | 0.00 | 0.00 | 2 | 1013.0 |
| 20260509042618 | 84 | 318 | 1.7 | 2.6 | 0.00 | 0.00 | 0.00 | 2 | 1013.0 |
| 20260509041620 | 85 | 315 | 4.3 | 7.0 | 0.00 | 0.00 | 0.00 | 2 | 1013.0 |
| 20260509040620 | 85 | 312 | 4.3 | 8.7 | 0.00 | 0.00 | 0.00 | 2 | 1013.0 |
| 20260509035620 | 86 | 315 | 6.1 | 5.2 | 0.00 | 0.00 | 0.00 | 2 | 1013.0 |
| 20260509034618 | 86 | 319 | 2.6 | 6.1 | 0.00 | 0.00 | 0.00 | 2 | 1013.0 |
| 20260509033618 | 87 | 315 | 0.9 | 2.6 | 0.00 | 0.00 | 0.00 | 2 | 1013.0 |
| 20260509032618 | 87 | 225 | 0.0 | 6.1 | 0.00 | 0.00 | 0.00 | 2 | 1013.0 |
| 20260509031618 | 88 | 316 | 0.9 | 5.2 | 0.00 | 0.00 | 0.00 | 2 | 1014.0 |
| 20260509030619 | 87 | 0 | 0.0 | 0.0 | 0.00 | 0.00 | 0.00 | 2 | 1014.0 |
| 20260509025619 | 87 | 271 | 1.7 | 4.3 | 0.00 | 0.00 | 0.00 | 2 | 1014.0 |
| 20260509024619 | 88 | 319 | 1.7 | 6.1 | 0.00 | 0.00 | 0.00 | 2 | 1014.0 |
| 20260509023619 | 88 | 315 | 0.0 | 2.6 | 0.00 | 0.00 | 0.00 | 2 | 1014.0 |
| 20260509022619 | 88 | 315 | 0.0 | 0.9 | 0.00 | 0.00 | 0.00 | 2 | 1014.0 |
| 20260509021619 | 87 | 315 | 0.0 | 0.9 | 0.00 | 0.00 | 0.00 | 2 | 1014.0 |
| 20260509020619 | 86 | 194 | 0.9 | 0.9 | 0.00 | 0.00 | 0.00 | 2 | 1014.0 |
| 20260509015619 | 87 | 342 | 0.9 | 1.7 | 0.00 | 0.00 | 0.00 | 2 | 1014.0 |
| 20260509014619 | 86 | 180 | 0.9 | 1.7 | 0.00 | 0.00 | 0.00 | 2 | 1014.0 |
| 20260509013619 | 85 | 355 | 0.9 | 2.6 | 0.00 | 0.00 | 0.00 | 2 | 1014.0 |
| 20260509012619 | 84 | 338 | 0.9 | 0.9 | 0.00 | 0.00 | 0.00 | 2 | 1014.0 |
| 20260509011618 | 84 | 0 | 0.0 | 0.9 | 0.00 | 0.00 | 0.00 | 2 | 1015.0 |
| 20260509010618 | 83 | 0 | 0.9 | 1.7 | 0.00 | 0.00 | 0.00 | 2 | 1014.0 |
| 20260509005618 | 82 | 0 | 0.0 | 1.7 | 0.00 | 0.00 | 0.00 | 2 | 1014.0 |
| 20260509004619 | 82 | 322 | 1.7 | 5.2 | 0.00 | 0.00 | 0.00 | 2 | 1014.0 |
| 20260509003619 | 81 | 315 | 0.9 | 1.7 | 0.00 | 0.00 | 0.00 | 2 | 1014.0 |
| 20260509002618 | 80 | 342 | 0.9 | 1.7 | 0.00 | 0.00 | 0.00 | 2 | 1014.0 |
| 20260509001619 | 78 | 33 | 0.0 | 0.9 | 0.00 | 0.00 | 0.00 | 2 | 1014.0 |
| 20260509000618 | 77 | 180 | 0.9 | 0.9 | 0.00 | 0.00 | 0.00 | 2 | 1014.0 |
| 20260508235618 | 76 | 315 | 0.9 | 0.9 | 0.00 | 0.00 | 0.00 | 16 | 1014.0 |
| 20260508234619 | 74 | 0 | 0.0 | 0.9 | 0.00 | 0.00 | 0.00 | 22 | 1014.0 |
| 20260508233619 | 73 | 315 | 0.0 | 2.6 | 0.00 | 0.00 | 0.00 | 27 | 1014.0 |
| 20260508232619 | 71 | 315 | 0.0 | 0.0 | 0.00 | 0.00 | 0.00 | 32 | 1014.0 |
| 20260508231618 | 69 | 315 | 0.0 | 2.6 | 0.00 | 0.00 | 0.00 | 34 | 1014.0 |
| 20260508230618 | 67 | 0 | 0.0 | 0.0 | 0.00 | 0.00 | 0.00 | 36 | 1014.0 |
| 20260508225620 | 66 | 0 | 0.0 | 0.0 | 0.00 | 0.00 | 0.00 | 42 | 1014.0 |
| 20260508224620 | 63 | 0 | 0.0 | 0.0 | 0.00 | 0.00 | 0.00 | 44 | 1014.0 |
| 20260508223620 | 60 | 0 | 0.0 | 0.0 | 0.00 | 0.00 | 0.00 | 47 | 1014.0 |
| 20260508222619 | 58 | 0 | 0.0 | 0.0 | 0.00 | 0.00 | 0.00 | 49 | 1014.0 |
| 20260508221619 | 56 | 0 | 0.0 | 0.0 | 0.00 | 0.00 | 0.00 | 50 | 1014.0 |
| 20260508220618 | 55 | 0 | 0.0 | 0.0 | 0.00 | 0.00 | 0.00 | 51 | 1013.0 |
| 20260508215619 | 54 | 0 | 0.0 | 0.0 | 0.00 | 0.00 | 0.00 | 51 | 1013.0 |
| 20260508214620 | 53 | 0 | 0.0 | 0.0 | 0.00 | 0.00 | 0.00 | 51 | 1013.0 |
| 20260508213620 | 52 | 0 | 0.0 | 0.0 | 0.00 | 0.00 | 0.00 | 51 | 1013.0 |
| 20260508212620 | 52 | 0 | 0.0 | 0.0 | 0.00 | 0.00 | 0.00 | 52 | 1013.0 |
| 20260508211620 | 51 | 0 | 0.0 | 0.0 | 0.00 | 0.00 | 0.00 | 52 | 1012.0 |
| 20260508210620 | 51 | 0 | 0.0 | 0.0 | 0.00 | 0.00 | 0.00 | 51 | 1012.0 |
| 20260508205620 | 52 | 0 | 0.0 | 0.0 | 0.00 | 0.00 | 0.00 | 51 | 1012.0 |
| 20260508204619 | 52 | 0 | 0.0 | 0.0 | 0.00 | 0.00 | 0.00 | 51 | 1013.0 |
| 20260508203619 | 51 | 90 | 0.0 | 0.0 | 0.00 | 0.00 | 0.00 | 52 | 1013.0 |
| 20260508202619 | 50 | 90 | 0.0 | 0.0 | 0.00 | 0.00 | 0.00 | 52 | 1013.0 |
| 20260508201619 | 50 | 90 | 0.0 | 0.0 | 0.00 | 0.00 | 0.00 | 52 | 1013.0 |
| 20260508200619 | 50 | 90 | 0.0 | 0.0 | 0.00 | 0.00 | 0.00 | 52 | 1013.0 |
| 20260508195619 | 50 | 90 | 0.0 | 0.0 | 0.00 | 0.00 | 0.00 | 52 | 1013.0 |
| 20260508194618 | 50 | 90 | 0.0 | 0.0 | 0.00 | 0.00 | 0.00 | 51 | 1013.0 |
| 20260508193618 | 50 | 90 | 0.0 | 0.0 | 0.00 | 0.00 | 0.00 | 51 | 1013.0 |
| 20260508192619 | 50 | 90 | 0.0 | 0.0 | 0.00 | 0.00 | 0.00 | 50 | 1013.0 |
| 20260508191620 | 50 | 90 | 0.0 | 0.0 | 0.00 | 0.00 | 0.00 | 50 | 1012.0 |
| 20260508190619 | 50 | 90 | 0.0 | 0.0 | 0.00 | 0.00 | 0.00 | 49 | 1012.0 |
| 20260508185619 | 51 | 90 | 0.0 | 0.0 | 0.00 | 0.00 | 0.00 | 49 | 1012.0 |
| 20260508184619 | 51 | 90 | 0.0 | 0.0 | 0.00 | 0.00 | 0.00 | 49 | 1012.0 |
| 20260508183619 | 51 | 90 | 0.0 | 0.0 | 0.00 | 0.00 | 0.00 | 48 | 1011.0 |
| 20260508182619 | 51 | 90 | 0.0 | 0.0 | 0.00 | 0.00 | 0.00 | 48 | 1011.0 |
| 20260508181620 | 51 | 90 | 0.0 | 0.0 | 0.00 | 0.00 | 0.00 | 48 | 1011.0 |
| 20260508180620 | 51 | 90 | 0.0 | 0.0 | 0.00 | 0.00 | 0.00 | 48 | 1011.0 |
| 20260508175618 | 51 | 90 | 0.0 | 0.0 | 0.00 | 0.00 | 0.00 | 48 | 1011.0 |
| 20260508174618 | 51 | 90 | 0.0 | 0.0 | 0.00 | 0.00 | 0.00 | 48 | 1011.0 |
| 20260508173618 | 51 | 90 | 0.0 | 0.0 | 0.00 | 0.00 | 0.00 | 47 | 1011.0 |
| 20260508172618 | 51 | 90 | 0.0 | 0.0 | 0.00 | 0.00 | 0.00 | 47 | 1011.0 |
| 20260508171619 | 51 | 0 | 0.0 | 0.0 | 0.00 | 0.00 | 0.00 | 46 | 1011.0 |
| 20260508170620 | 52 | 0 | 0.0 | 0.0 | 0.00 | 0.00 | 0.00 | 46 | 1011.0 |
| 20260508165620 | 52 | 180 | 0.0 | 0.0 | 0.00 | 0.00 | 0.00 | 46 | 1011.0 |
| 20260508164620 | 52 | 180 | 0.0 | 0.0 | 0.00 | 0.00 | 0.00 | 46 | 1011.0 |
| 20260508163618 | 52 | 187 | 0.0 | 0.0 | 0.00 | 0.00 | 0.00 | 46 | 1011.0 |
| 20260508162618 | 52 | 90 | 0.0 | 0.0 | 0.00 | 0.00 | 0.00 | 44 | 1011.0 |
| 20260508161619 | 52 | 90 | 0.0 | 0.0 | 0.00 | 0.00 | 0.00 | 42 | 1011.0 |
| 20260508160619 | 53 | 90 | 0.0 | 0.0 | 0.00 | 0.00 | 0.00 | 42 | 1011.0 |
| 20260508155619 | 53 | 90 | 0.0 | 0.0 | 0.00 | 0.00 | 0.00 | 41 | 1011.0 |
| 20260508154620 | 53 | 90 | 0.0 | 0.0 | 0.00 | 0.00 | 0.00 | 40 | 1011.0 |
| 20260508153620 | 53 | 90 | 0.0 | 0.0 | 0.00 | 0.00 | 0.00 | 40 | 1011.0 |
| 20260508152620 | 53 | 90 | 0.0 | 0.0 | 0.00 | 0.00 | 0.00 | 40 | 1011.0 |
| 20260508151619 | 54 | 90 | 0.0 | 0.0 | 0.00 | 0.00 | 0.00 | 39 | 1011.0 |
| 20260508150619 | 54 | 90 | 0.0 | 0.0 | 0.00 | 0.00 | 0.00 | 38 | 1011.0 |
| 20260508145620 | 54 | 90 | 0.0 | 0.0 | 0.00 | 0.00 | 0.00 | 37 | 1011.0 |
| 20260508144618 | 54 | 90 | 0.0 | 0.0 | 0.00 | 0.00 | 0.00 | 37 | 1011.0 |
| 20260508143620 | 55 | 90 | 0.0 | 0.0 | 0.00 | 0.00 | 0.00 | 37 | 1011.0 |
| 20260508142619 | 55 | 90 | 0.0 | 0.0 | 0.00 | 0.00 | 0.00 | 37 | 1011.0 |
| 20260508141619 | 55 | 90 | 0.0 | 0.0 | 0.00 | 0.00 | 0.00 | 37 | 1011.0 |
| 20260508140619 | 55 | 315 | 0.0 | 0.0 | 0.00 | 0.00 | 0.00 | 36 | 1010.0 |
| 20260508135619 | 55 | 315 | 0.0 | 0.0 | 0.00 | 0.00 | 0.00 | 36 | 1010.0 |
| 20260508134619 | 56 | 315 | 0.0 | 0.0 | 0.00 | 0.00 | 0.00 | 35 | 1010.0 |
| 20260508133619 | 56 | 315 | 0.0 | 0.0 | 0.00 | 0.00 | 0.00 | 35 | 1011.0 |
| 20260508132620 | 56 | 315 | 0.0 | 0.0 | 0.00 | 0.00 | 0.00 | 34 | 1011.0 |
| 20260508131620 | 56 | 315 | 0.0 | 0.0 | 0.00 | 0.00 | 0.00 | 32 | 1010.0 |
| 20260508130620 | 57 | 315 | 0.0 | 0.0 | 0.00 | 0.00 | 0.00 | 30 | 1010.0 |
| 20260508125620 | 57 | 315 | 0.0 | 0.0 | 0.00 | 0.00 | 0.00 | 29 | 1010.0 |
| 20260508124620 | 58 | 315 | 0.0 | 0.0 | 0.00 | 0.00 | 0.00 | 29 | 1011.0 |
| 20260508123620 | 58 | 315 | 0.0 | 0.0 | 0.00 | 0.00 | 0.00 | 27 | 1010.0 |
| 20260508122620 | 58 | 315 | 0.0 | 0.0 | 0.00 | 0.00 | 0.00 | 27 | 1010.0 |
| 20260508121618 | 59 | 315 | 0.0 | 0.0 | 0.00 | 0.00 | 0.00 | 26 | 1011.0 |
| 20260508120618 | 59 | 315 | 0.0 | 0.0 | 0.00 | 0.00 | 0.00 | 24 | 1011.0 |
| 20260508115619 | 59 | 315 | 0.0 | 0.0 | 0.00 | 0.00 | 0.00 | 24 | 1011.0 |
| 20260508114619 | 60 | 315 | 0.0 | 0.0 | 0.00 | 0.00 | 0.00 | 18 | 1011.0 |
| 20260508113619 | 60 | 315 | 0.0 | 0.0 | 0.00 | 0.00 | 0.00 | 10 | 1010.0 |
| 20260508112619 | 61 | 315 | 0.0 | 0.0 | 0.00 | 0.00 | 0.00 | 6 | 1010.0 |
| 20260508111619 | 61 | 315 | 0.0 | 0.0 | 0.00 | 0.00 | 0.00 | 5 | 1010.0 |
| 20260508110619 | 62 | 315 | 0.0 | 0.0 | 0.00 | 0.00 | 0.00 | 5 | 1010.0 |
| 20260508105619 | 62 | 315 | 0.0 | 0.0 | 0.00 | 0.00 | 0.00 | 5 | 1010.0 |
| 20260508104620 | 62 | 315 | 0.0 | 0.0 | 0.00 | 0.00 | 0.00 | 5 | 1010.0 |
| 20260508103620 | 63 | 315 | 0.0 | 0.0 | 0.00 | 0.00 | 0.00 | 5 | 1010.0 |
| 20260508102620 | 64 | 315 | 0.0 | 0.0 | 0.00 | 0.00 | 0.00 | 5 | 1010.0 |
| 20260508101619 | 64 | 315 | 0.0 | 0.0 | 0.00 | 0.00 | 0.00 | 4 | 1010.0 |
| 20260508100619 | 65 | 315 | 0.0 | 0.0 | 0.00 | 0.00 | 0.00 | 4 | 1009.0 |
| 20260508095619 | 66 | 315 | 0.0 | 0.9 | 0.00 | 0.00 | 0.00 | 4 | 1009.0 |
| 20260508094620 | 66 | 315 | 0.0 | 0.0 | 0.00 | 0.00 | 0.00 | 4 | 1009.0 |
| 20260508093620 | 67 | 315 | 0.0 | 0.9 | 0.00 | 0.00 | 0.00 | 4 | 1009.0 |
| 20260508092620 | 67 | 264 | 0.9 | 1.7 | 0.00 | 0.00 | 0.00 | 4 | 1009.0 |
| 20260508091619 | 68 | 300 | 0.0 | 2.6 | 0.00 | 0.00 | 0.00 | 4 | 1009.0 |